Temp
54 54 54 54 53 53 53 53 53 53 53 54 54 54 55 55 54 57 69 67 64 66 72 70 71 69 72 71 68 72 72 72 73 65 67 70 70 74 72 74 72 68 65 66 68 65 61 85 84 76 75 81 82 85
54 54 54 54 53 53 53 53 53 53 53 54 54 54 54 54 54 55 67 73 71 62 69 71 72 74 72 72 69 74 70 70 78 71 72 74 71 74 68 64 77 67 75 72 73 73 78 82 79 79 81 80 80 82
54 53 53 53 53 53 53 53 53 53 53 54 54 54 54 54 53 54 62 67 67 64 70 71 70 76 79 77 80 66 75 71 71 73 72 74 67 76 67 69 72 76 81 73 74 80 78 79 82 80 80 80 83 85
53 53 53 53 53 53 53 53 53 52 53 53 53 54 54 53 53 53 62 67 66 65 62 67 77 71 76 78 76 75 72 73 73 75 71 71 69 77 71 73 72 76 74 74 74 76 79 79 78 78 78 80 82 85
53 53 53 53 53 53 53 53 53 52 52 53 53 53 53 53 52 56 64 69 71 61 60 67 73 75 76 74 72 74 71 68 71 70 69 68 76 72 74 76 73 78 72 64 67 73 72 72 77 79 78 78 80 78
52 53 53 52 52 52 53 52 52 52 52 52 52 52 52 52 52 59 62 70 75 69 60 63 74 70 73 72 71 70 72 70 71 71 71 75 75 71 66 67 75 77 77 78 72 76 76 77 78 80 78 79 80 77
52 52 53 52 52 52 52 52 52 52 52 52 52 52 52 51 58 56 54 58 56 67 61 63 65 72 74 73 73 72 72 72 72 71 69 71 73 70 66 64 70 69 75 76 76 76 74 78 77 81 81 79 76 77
52 52 52 52 52 52 52 52 52 52 51 52 52 51 51 51 53 57 64 54 57 62 65 59 60 67 74 69 67 75 70 71 71 69 72 70 72 70 61 69 74 73 74 74 76 78 78 81 80 80 80 79 78 72
51 52 52 52 52 52 52 52 51 51 51 51 51 51 58 57 55 59 55 55 65 60 58 63 59 53 74 66 67 68 73 65 74 67 68 70 67 61 67 69 71 74 71 71 74 76 78 77 71 76 78 78 76 74
51 51 52 52 52 52 52 51 51 51 51 51 54 56 50 58 53 56 58 55 57 60 63 60 73 58 71 69 65 62 66 62 57 62 73 64 65 72 74 74 73 72 72 74 70 70 74 72 72 74 74 74 78 77
51 51 52 52 52 52 52 51 51 51 50 58 57 52 61 54 62 55 51 53 54 54 63 66 69 60 74 58 59 67 57 62 54 60 62 60 62 69 74 71 73 73 73 74 74 74 76 76 69 72 70 74 72 77
51 51 52 52 52 52 51 51 51 54 61 53 54 60 68 59 51 48 51 58 54 51 64 60 64 69 62 71 58 60 59 63 55 68 61 58 55 65 68 66 65 71 73 73 74 73 75 76 78 78 74 76 76 78
51 51 51 52 52 52 51 51 51 51 51 62 57 56 53 50 38 44 46 53 50 60 62 62 57 68 68 70 61 61 55 57 70 56 57 55 60 63 63 65 64 65 69 73 73 74 75 76 77 78 77 79 78 71
51 51 51 51 52 51 51 51 51 53 54 55 52 35 48 48 53 60 60 55 65 65 65 62 58 62 66 57 60 53 62 63 52 51 50 60 60 62 64 66 65 63 64 66 69 73 73 74 76 77 79 81 79 72
51 51 51 51 51 51 51 51 51 57 57 54 57 40 52 60 64 58 61 61 63 65 61 61 62 60 58 55 59 59 53 50 51 48 56 61 61 60 61 64 63 62 62 63 67 69 70 71 73 74 77 80 81 80
51 51 54 51 51 51 51 52 56 62 61 57 56 53 60 56 56 62 64 57 69 65 63 61 55 52 52 56 52 51 51 51 52 61 63 63 60 60 60 61 58 56 57 57 61 65 66 68 70 71 78 79 79 78
51 58 51 51 51 51 50 55 60 55 57 53 56 62 60 60 58 60 62 60 68 60 56 55 47 50 57 53 51 60 53 55 56 59 61 59 57 57 57 54 54 56 55 57 58 61 62 66 70 69 66 69 72 71
54 55 51 51 53 54 58 56 57 56 50 55 54 56 62 63 60 58 62 66 65 57 57 54 58 52 49 48 53 58 59 60 62 60 60 57 50 52 52 52 53 53 54 56 59 60 60 60 60 58 58 58 57 56
59 57 51 51 54 55 57 58 59 51 55 58 63 62 60 60 63 65 67 63 64 66 62 61 51 51 52 58 55 59 61 60 57 53 49 50 51 52 52 54 55 56 56 56 56 56 57 59 58 59 59 58 55 55
51 51 51 51 52 53 54 58 63 54 54 60 59 61 59 56 60 66 61 62 61 58 53 53 56 57 58 59 61 61 59 55 47 46 47 51 52 52 52 53 53 54 54 56 56 54 59 56 58 59 59 56 55 55
54 54 52 55 60 60 60 61 59 58 56 55 57 59 56 62 59 58 54 57 53 51 53 58 58 57 61 61 59 51 48 49 48 48 48 49 51 51 52 53 53 54 53 53 53 53 53 53 55 57 57 57 54 53
59 52 62 59 58 58 58 65 56 59 58 56 58 57 55 54 49 45 46 44 47 53 54 54 54 54 55 49 48 49 51 52 52 51 49 50 51 51 51 51 52 51 51 52 52 52 52 53 53 54 54 55 55 56
51 57 61 60 53 49 48 64 52 56 51 51 55 47 45 43 43 46 41 43 43 47 47 47 47 48 47 48 51 52 53 52 50 51 51 51 53 54 53 53 55 56 55 55 57 54 53 49 51 55 54 54 54 59
45 57 53 54 53 45 57 48 56 48 44 42 40 39 40 42 43 39 36 40 44 46 47 47 49 49 50 51 50 50 51 52 51 51 52 53 54 54 57 57 58 60 60 60 62 57 56 58 54 65 65 66 68 68
45 43 46 34 54 47 42 42 39 38 37 40 39 39 40 41 37 35 35 41 44 46 49 50 51 51 49 49 50 51 54 53 53 52 54 60 64 58 57 61 63 64 64 60 60 63 60 67 70 71 71 70 69 68
35 47 40 45 47 41 41 36 35 38 40 39 40 42 43 40 36 33 39 43 44 47 50 50 50 50 50 52 51 53 55 64 69 65 60 62 66 70 66 64 65 67 71 70 68 66 66 69 69 68 68 65 55 68
37 40 44 49 44 40 38 40 42 40 40 39 41 41 41 35 34 40 45 47 48 51 53 53 53 52 54 60 59 57 59 63 67 67 69 70 74 74 71 69 68 72 76 75 74 72 70 70 70 70 70 71 71 70
39 39 36 39 39 42 40 42 42 43 47 52 48 43 39 37 39 45 47 49 52 53 54 59 57 64 66 66 70 68 68 71 72 74 75 75 75 74 73 73 72 49 67 67 73 74 73 72 71 71 70 69 69 70
39 41 41 40 43 44 46 45 47 51 57 54 49 44 43 48 49 49 50 52 57 55 57 58 60 70 73 72 74 78 78 76 71 66 66 67 69 71 75 75 75 74 74 72 42 54 63 68 70 71 70 69 70 71
43 46 43 45 47 46 55 58 56 59 60 59 57 53 52 54 55 58 61 65 65 64 67 69 69 69 71 72 71 73 77 78 76 73 68 68 70 74 75 75 75 75 75 73 72 69 45 63 59 70 69 71 70 70
55 55 52 52 52 59 61 64 65 65 63 61 63 59 58 61 66 71 72 72 73 73 72 71 72 74 73 72 71 71 70 74 74 74 75 76 76 75 74 75 77 77 77 76 76 75 72 71 73 70 68 65 63 61
57 54 54 50 51 61 66 63 61 60 61 62 63 66 65 64 60 67 72 74 72 71 59 71 73 72 75 75 75 75 60 75 74 74 74 74 74 74 78 78 77 75 76 75 75 74 70 68 71 69 67 63 62 62
58 59 60 59 58 57 61 62 60 60 63 61 63 66 66 64 59 67 76 79 75 74 74 75 76 76 74 75 74 72 67 69 51 39 42 40 39 51 70 75 73 73 72 73 73 71 67 65 67 64 63 62 62 61
MSLP
1025.68 1025.77 1025.73 1025.72 1025.79 1025.70 1025.61 1025.54 1025.38 1025.11 1024.81 1024.43 1024.12 1023.72 1023.30 1022.92 1022.45 1021.46 1018.87 1019.34 1018.37 1015.55 1013.79 1013.97 1013.48 1012.77 1011.89 1011.63 1010.37 1009.93 1010.41 1010.10 1008.98 1008.46 1007.09 1005.56 1004.51 1003.71 1003.65 1003.47 1003.53 1004.27 1004.75 1004.68 1004.65 1003.97 1003.36 1003.17 1003.12 1003.21 1004.36 1003.93 1003.60 1003.14
1025.20 1025.36 1025.35 1025.35 1025.48 1025.44 1025.34 1025.36 1025.27 1025.05 1024.76 1024.45 1024.21 1023.92 1023.58 1023.20 1022.76 1022.13 1018.98 1018.74 1018.81 1017.72 1014.87 1015.12 1014.79 1014.50 1014.10 1013.60 1012.94 1011.22 1010.59 1010.07 1009.00 1008.11 1007.31 1005.80 1004.69 1004.33 1004.27 1003.69 1004.20 1004.22 1004.11 1004.08 1003.95 1003.82 1004.60 1004.76 1004.84 1005.39 1005.38 1005.27 1005.17 1004.97
1024.70 1024.88 1025.00 1024.99 1025.07 1025.10 1025.06 1025.12 1025.08 1024.94 1024.69 1024.42 1024.14 1023.88 1023.58 1023.28 1022.97 1022.62 1020.53 1019.25 1018.23 1016.78 1014.52 1014.01 1013.57 1013.86 1014.31 1014.34 1014.09 1013.14 1011.22 1011.77 1010.94 1010.93 1008.85 1006.53 1005.41 1004.98 1004.32 1004.62 1004.08 1004.50 1004.56 1004.92 1004.77 1004.20 1004.94 1005.78 1005.89 1006.43 1006.53 1006.27 1005.98 1005.71
1024.19 1024.37 1024.54 1024.59 1024.72 1024.86 1024.92 1024.88 1024.81 1024.74 1024.60 1024.40 1024.12 1023.84 1023.53 1023.23 1022.96 1022.70 1020.55 1019.51 1018.80 1017.15 1014.70 1013.18 1013.81 1013.93 1014.14 1014.01 1014.18 1014.18 1013.89 1013.25 1012.53 1011.14 1009.68 1007.93 1006.77 1006.59 1005.65 1005.21 1005.13 1005.09 1005.89 1005.47 1005.39 1005.70 1005.90 1006.42 1007.20 1007.24 1007.22 1007.03 1006.54 1006.42
1023.72 1023.88 1024.08 1024.22 1024.35 1024.50 1024.61 1024.61 1024.52 1024.50 1024.43 1024.28 1024.07 1023.80 1023.50 1023.20 1022.89 1022.20 1020.58 1019.40 1019.23 1018.68 1015.43 1013.06 1013.19 1013.50 1013.71 1014.06 1014.13 1014.17 1014.10 1013.83 1012.16 1010.82 1009.94 1008.69 1007.97 1007.81 1007.46 1006.67 1005.65 1005.71 1005.89 1006.79 1006.49 1007.39 1007.52 1007.78 1007.83 1007.85 1007.51 1007.52 1007.49 1007.83
1023.23 1023.38 1023.65 1023.87 1024.00 1024.13 1024.21 1024.30 1024.28 1024.27 1024.23 1024.11 1023.94 1023.70 1023.41 1023.14 1022.69 1021.40 1019.01 1019.00 1019.10 1018.99 1016.91 1013.04 1012.75 1013.16 1013.46 1013.78 1013.79 1013.85 1013.77 1013.65 1012.77 1010.98 1009.85 1008.98 1009.21 1009.65 1008.38 1006.82 1006.78 1006.87 1007.79 1008.10 1008.06 1008.65 1008.39 1008.32 1008.41 1008.12 1007.94 1007.99 1008.08 1008.65
1022.70 1022.93 1023.19 1023.48 1023.66 1023.74 1023.90 1024.00 1024.01 1024.02 1023.97 1023.83 1023.68 1023.47 1023.22 1023.01 1022.18 1021.07 1020.89 1020.74 1020.51 1019.26 1016.97 1013.45 1011.79 1012.58 1012.81 1013.17 1013.10 1013.03 1013.31 1012.67 1012.18 1011.17 1010.45 1009.74 1009.37 1010.19 1009.52 1007.79 1008.18 1008.60 1008.82 1008.96 1009.42 1009.23 1008.49 1008.00 1007.88 1008.14 1008.15 1008.66 1008.83 1009.45
1022.15 1022.47 1022.74 1023.06 1023.27 1023.42 1023.62 1023.73 1023.74 1023.72 1023.64 1023.47 1023.27 1023.04 1022.78 1022.59 1022.24 1021.12 1020.16 1021.11 1020.79 1018.93 1016.71 1013.76 1012.02 1011.78 1012.60 1011.82 1011.63 1011.90 1011.94 1012.04 1011.52 1011.03 1010.11 1009.59 1009.43 1009.73 1009.27 1008.84 1008.47 1009.05 1009.74 1009.91 1009.40 1009.49 1009.17 1008.57 1008.57 1008.27 1008.69 1008.69 1008.82 1009.90
1021.51 1021.93 1022.29 1022.62 1022.88 1023.10 1023.33 1023.48 1023.50 1023.41 1023.28 1023.10 1022.82 1022.42 1021.68 1021.57 1020.81 1020.31 1020.84 1020.91 1020.05 1019.21 1016.04 1013.40 1011.23 1011.52 1011.81 1011.85 1011.91 1011.97 1011.09 1010.61 1010.32 1010.00 1009.88 1009.61 1009.03 1008.79 1008.79 1009.18 1009.18 1009.14 1009.75 1010.07 1010.11 1009.91 1009.47 1008.97 1009.45 1009.19 1009.06 1009.12 1009.25 1009.98
1020.81 1021.34 1021.80 1022.18 1022.48 1022.77 1023.04 1023.22 1023.23 1023.12 1022.98 1022.81 1022.38 1021.05 1020.45 1020.12 1020.77 1020.88 1020.76 1019.57 1018.68 1017.56 1016.28 1013.62 1011.51 1011.38 1011.02 1011.04 1011.08 1011.59 1011.29 1010.51 1010.11 1009.86 1009.06 1008.91 1008.41 1008.55 1008.91 1009.33 1009.89 1010.26 1010.59 1010.71 1010.43 1009.77 1009.33 1009.06 1009.53 1009.71 1009.81 1009.72 1009.20 1009.68
1020.10 1020.75 1021.31 1021.73 1022.12 1022.48 1022.77 1022.97 1022.97 1022.87 1022.32 1021.58 1020.20 1019.80 1019.77 1020.48 1020.16 1019.41 1018.42 1017.65 1017.07 1015.71 1014.36 1012.79 1011.53 1012.03 1011.26 1011.72 1011.56 1011.08 1011.62 1011.10 1010.10 1009.50 1009.14 1008.82 1008.13 1008.01 1009.06 1010.00 1010.78 1011.05 1011.24 1011.11 1010.90 1010.68 1010.16 1009.66 1009.98 1009.96 1010.00 1010.19 1010.23 1009.58
1019.41 1020.19 1020.81 1021.32 1021.80 1022.23 1022.59 1022.78 1022.74 1022.38 1020.74 1021.41 1020.97 1019.77 1019.01 1019.10 1019.04 1018.08 1016.83 1015.78 1015.12 1014.08 1012.89 1012.40 1011.89 1011.49 1012.36 1011.92 1012.28 1011.94 1010.73 1010.26 1009.23 1009.26 1009.54 1009.00 1010.81 1010.86 1010.94 1011.62 1011.98 1011.65 1011.24 1011.03 1010.97 1010.75 1010.42 1010.00 1009.52 1009.39 1009.45 1009.39 1009.85 1009.47
1018.94 1019.75 1020.43 1021.00 1021.57 1022.03 1022.43 1022.59 1022.55 1022.34 1021.92 1020.51 1020.20 1018.71 1018.29 1018.28 1017.77 1016.43 1014.86 1013.99 1013.96 1013.10 1013.51 1013.09 1012.70 1011.79 1012.07 1012.03 1012.07 1011.51 1010.82 1009.81 1009.46 1009.79 1009.47 1010.91 1011.85 1012.27 1012.56 1012.51 1012.81 1012.80 1012.20 1011.41 1011.01 1010.80 1010.51 1010.09 1009.74 1009.30 1009.12 1009.06 1009.08 1009.40
1018.68 1019.59 1020.26 1020.88 1021.41 1021.90 1022.25 1022.42 1022.46 1022.26 1021.65 1018.97 1018.24 1018.30 1017.14 1015.94 1015.15 1013.62 1013.73 1014.01 1013.63 1013.57 1013.31 1012.99 1012.89 1012.13 1012.34 1012.49 1011.92 1011.32 1010.48 1010.38 1010.39 1009.90 1010.56 1011.77 1012.53 1012.83 1013.05 1013.09 1013.06 1013.03 1012.87 1012.34 1011.45 1010.89 1010.70 1010.24 1009.56 1009.30 1008.83 1008.60 1008.67 1008.97
1018.72 1019.56 1020.28 1020.91 1021.40 1021.85 1022.12 1022.28 1022.29 1021.68 1019.75 1018.01 1017.09 1016.57 1015.28 1014.32 1013.93 1014.39 1014.13 1013.88 1013.87 1013.70 1013.75 1013.28 1012.96 1013.00 1012.72 1012.38 1011.74 1011.32 1011.06 1010.46 1010.55 1011.35 1012.07 1012.50 1013.16 1013.63 1013.50 1013.33 1013.45 1013.58 1013.41 1012.93 1012.23 1011.62 1011.21 1010.68 1010.06 1009.57 1009.01 1008.40 1008.29 1008.59
1018.94 1019.87 1019.93 1020.69 1021.36 1021.74 1021.99 1022.04 1021.56 1020.21 1018.69 1017.62 1016.76 1015.57 1014.58 1014.31 1014.05 1013.59 1013.55 1014.01 1013.71 1013.76 1013.80 1013.64 1013.54 1013.16 1012.78 1012.15 1011.80 1011.23 1010.60 1010.48 1011.70 1012.21 1012.41 1012.78 1013.41 1013.61 1013.55 1013.52 1013.77 1014.12 1013.76 1013.43 1013.04 1012.15 1011.79 1011.25 1010.50 1009.55 1008.65 1008.71 1008.71 1009.17
1018.92 1018.42 1019.83 1020.68 1021.29 1021.70 1021.87 1021.37 1019.84 1018.88 1017.60 1016.87 1015.58 1015.05 1014.62 1014.34 1014.06 1013.84 1014.30 1014.39 1013.91 1013.97 1013.93 1013.97 1013.89 1013.01 1012.76 1012.24 1011.75 1010.86 1011.36 1012.21 1012.65 1012.96 1013.25 1013.70 1014.12 1014.06 1013.79 1013.78 1013.75 1013.60 1013.49 1013.12 1012.86 1012.30 1011.93 1011.34 1010.87 1010.65 1010.57 1010.56 1010.70 1011.23
1018.43 1019.13 1019.95 1020.70 1021.05 1021.21 1020.70 1020.34 1018.74 1017.77 1017.00 1016.19 1015.31 1015.09 1014.68 1014.64 1014.44 1014.65 1014.79 1014.34 1014.08 1014.46 1014.35 1014.00 1014.02 1013.30 1012.81 1012.33 1011.78 1012.19 1012.67 1013.01 1013.15 1013.59 1014.08 1014.68 1014.68 1014.32 1013.86 1013.56 1013.45 1013.39 1013.20 1012.92 1012.56 1012.30 1012.15 1011.98 1011.91 1012.05 1012.35 1012.88 1013.04 1013.44
1018.24 1019.31 1020.36 1020.72 1020.53 1020.04 1018.61 1018.54 1018.12 1016.73 1015.91 1015.57 1015.51 1015.36 1015.36 1015.02 1014.85 1014.85 1014.46 1015.16 1015.35 1015.06 1015.00 1014.36 1014.03 1013.22 1013.15 1013.18 1013.44 1013.20 1013.41 1013.72 1014.21 1015.09 1015.32 1015.08 1014.62 1014.22 1013.74 1013.50 1013.26 1012.99 1012.82 1012.67 1012.65 1012.63 1012.75 1012.84 1012.94 1013.12 1013.39 1013.79 1014.18 1014.68
1019.64 1020.33 1020.76 1020.99 1021.05 1019.41 1017.74 1017.30 1017.64 1016.58 1015.54 1015.44 1015.34 1015.06 1015.17 1015.35 1015.31 1014.89 1015.39 1015.68 1015.90 1015.92 1015.41 1014.76 1013.86 1013.53 1013.71 1013.89 1014.38 1014.55 1014.89 1015.42 1015.71 1015.62 1015.27 1014.91 1014.73 1014.38 1014.15 1013.75 1013.51 1013.36 1013.22 1013.23 1013.31 1013.30 1013.47 1013.86 1014.01 1014.21 1014.55 1014.87 1015.10 1015.64
1019.78 1020.61 1021.05 1020.78 1019.30 1018.35 1017.10 1016.47 1016.06 1016.05 1016.01 1015.51 1015.85 1015.37 1015.44 1015.31 1015.67 1016.48 1016.93 1017.27 1016.88 1016.27 1015.47 1015.01 1014.72 1015.11 1015.25 1015.30 1015.87 1016.22 1016.14 1016.12 1015.87 1015.65 1015.47 1015.13 1014.93 1014.64 1014.35 1014.25 1014.05 1014.06 1014.07 1014.32 1014.52 1014.72 1014.77 1014.96 1015.20 1015.33 1015.49 1015.80 1016.11 1017.03
1019.52 1020.33 1019.31 1019.48 1018.38 1017.97 1017.31 1016.83 1016.72 1016.54 1016.04 1016.08 1015.91 1016.20 1016.09 1016.63 1017.59 1018.52 1018.96 1018.51 1017.70 1016.72 1016.58 1016.40 1016.35 1016.40 1016.17 1016.55 1016.62 1016.52 1016.31 1016.10 1015.92 1015.83 1015.62 1015.33 1015.10 1014.94 1014.94 1014.87 1014.73 1014.84 1014.89 1015.24 1015.38 1015.55 1015.68 1015.93 1016.11 1016.34 1016.61 1017.01 1016.85 1017.81
1019.89 1019.47 1018.47 1018.26 1018.02 1017.99 1017.68 1016.90 1016.84 1016.72 1016.42 1016.98 1017.11 1017.65 1018.13 1018.71 1019.19 1019.62 1019.20 1018.84 1018.41 1017.91 1017.65 1017.45 1017.20 1017.02 1016.98 1016.82 1016.65 1016.47 1016.42 1016.34 1016.26 1016.13 1015.94 1015.75 1015.51 1015.34 1015.47 1015.56 1015.49 1015.30 1015.59 1015.95 1016.24 1016.45 1016.76 1017.01 1017.16 1017.23 1017.47 1017.58 1017.83 1017.95
1019.77 1018.52 1017.86 1017.63 1017.82 1017.69 1017.38 1017.71 1017.93 1018.33 1018.69 1018.56 1018.54 1018.51 1018.96 1019.42 1019.82 1019.83 1019.57 1019.09 1018.37 1017.75 1017.31 1017.07 1016.92 1016.80 1016.83 1016.75 1016.59 1016.63 1016.64 1016.58 1016.47 1016.40 1016.32 1015.97 1015.72 1015.76 1015.84 1016.04 1016.08 1016.09 1016.23 1016.53 1016.54 1017.07 1017.30 1017.48 1017.50 1017.07 1016.95 1016.79 1016.78 1016.99
1019.37 1019.25 1018.87 1018.66 1017.81 1017.96 1018.36 1018.54 1019.00 1019.14 1018.98 1018.84 1018.90 1019.04 1019.35 1019.88 1019.91 1019.86 1019.53 1019.00 1018.28 1017.70 1017.16 1016.99 1016.94 1016.93 1016.92 1016.93 1016.86 1016.80 1016.85 1016.64 1016.38 1016.43 1016.56 1016.01 1015.50 1015.97 1016.12 1016.12 1016.07 1016.24 1016.52 1016.83 1016.84 1016.90 1017.15 1016.57 1016.36 1016.17 1016.32 1016.58 1016.90 1017.18
1019.47 1018.88 1019.07 1018.55 1018.60 1018.96 1019.15 1019.23 1019.20 1018.99 1018.76 1018.69 1018.84 1019.15 1019.41 1019.53 1019.76 1019.88 1019.52 1018.99 1018.44 1017.83 1017.39 1017.14 1017.11 1017.07 1017.07 1017.07 1017.10 1016.98 1016.90 1016.20 1015.41 1015.55 1016.03 1015.80 1015.16 1014.65 1015.08 1015.40 1015.36 1015.77 1015.87 1016.10 1016.48 1016.86 1017.06 1016.90 1016.89 1017.15 1017.36 1017.60 1017.68 1017.48
1019.59 1019.32 1019.49 1019.71 1019.70 1019.69 1019.56 1019.29 1019.03 1018.62 1017.97 1017.88 1018.28 1018.59 1018.70 1019.22 1019.56 1019.56 1019.07 1018.81 1018.37 1018.13 1017.83 1017.65 1017.36 1017.22 1016.84 1016.53 1016.59 1016.52 1016.51 1016.13 1015.64 1015.68 1015.55 1015.32 1014.97 1015.07 1015.31 1015.47 1015.78 1015.92 1016.02 1016.15 1016.27 1016.54 1016.85 1017.06 1017.17 1017.32 1017.38 1017.51 1017.68 1017.79
1019.95 1019.87 1019.70 1019.75 1019.55 1019.24 1018.69 1018.22 1017.74 1017.17 1016.48 1016.73 1017.44 1017.54 1018.34 1019.00 1019.35 1019.31 1019.10 1018.87 1018.45 1018.23 1018.04 1017.79 1017.73 1017.19 1016.38 1016.15 1015.85 1015.90 1015.95 1015.82 1015.68 1015.52 1015.57 1015.82 1016.12 1016.36 1016.60 1016.85 1017.13 1017.20 1017.50 1017.69 1017.25 1017.18 1017.23 1017.32 1017.43 1017.60 1017.80 1018.02 1018.33 1018.60
1019.53 1019.43 1019.38 1018.90 1018.38 1018.02 1017.40 1017.06 1016.46 1016.18 1015.75 1015.88 1016.20 1017.23 1018.03 1018.34 1018.58 1018.70 1018.55 1018.35 1018.27 1018.14 1017.79 1017.75 1017.51 1016.87 1016.01 1015.88 1015.54 1014.90 1014.69 1014.83 1015.24 1015.50 1015.55 1015.72 1016.01 1016.45 1016.65 1016.90 1017.10 1017.36 1017.74 1018.17 1018.42 1018.60 1018.69 1018.40 1018.15 1018.13 1018.41 1018.68 1019.01 1019.23
1018.34 1018.50 1018.09 1017.53 1016.89 1016.43 1015.82 1015.50 1015.44 1015.49 1015.48 1015.69 1016.27 1017.03 1017.50 1017.73 1017.84 1017.76 1017.59 1017.17 1016.77 1016.57 1016.27 1016.19 1016.27 1016.07 1015.49 1015.20 1015.30 1015.24 1015.22 1015.21 1015.33 1015.57 1015.82 1016.12 1016.32 1016.63 1016.85 1016.99 1017.13 1017.31 1017.61 1017.97 1018.34 1019.00 1019.40 1019.16 1019.31 1019.01 1018.95 1018.88 1019.06 1019.34
1016.81 1016.63 1016.56 1016.23 1015.70 1015.06 1014.90 1014.80 1014.86 1015.03 1015.33 1015.56 1015.65 1015.89 1016.35 1016.45 1016.12 1015.88 1015.81 1015.78 1015.66 1015.64 1015.47 1015.40 1015.35 1015.28 1015.26 1015.45 1015.56 1015.53 1015.92 1016.53 1017.00 1017.14 1016.99 1016.98 1017.21 1017.43 1017.52 1017.65 1017.66 1017.75 1017.86 1017.94 1017.99 1017.98 1018.36 1018.64 1018.57 1018.82 1019.03 1019.25 1019.76 1019.91
1016.22 1016.01 1015.69 1015.72 1015.55 1014.94 1014.43 1014.40 1014.70 1014.87 1014.86 1014.68 1014.60 1014.97 1015.19 1015.26 1015.47 1015.77 1015.82 1015.50 1015.23 1015.21 1015.96 1015.39 1015.34 1015.40 1015.65 1016.01 1016.21 1016.55 1016.78 1017.28 1017.86 1018.14 1018.31 1018.41 1018.60 1018.49 1018.02 1017.84 1017.95 1018.19 1018.22 1018.22 1018.26 1018.26 1018.60 1018.88 1018.89 1019.09 1019.42 1019.89 1020.14 1020.38
1015.21 1015.17 1014.86 1014.71 1014.74 1014.67 1014.56 1014.37 1014.28 1014.22 1014.24 1014.27 1014.24 1014.19 1014.27 1014.63 1015.07 1015.45 1015.36 1014.82 1014.92 1015.01 1015.03 1015.39 1015.69 1016.09 1016.51 1016.41 1016.84 1017.39 1017.89 1018.89 1020.11 1020.59 1020.46 1020.53 1020.53 1020.23 1018.87 1018.23 1018.91 1019.08 1018.95 1018.79 1018.69 1018.81 1019.11 1019.36 1019.44 1019.77 1019.99 1020.20 1020.43 1020.66
Wind_Speed
10 10 10 8 8 8 7 8 9 10 12 11 12 13 15 16 17 12 4 4 6 6 5 4 5 8 5 6 9 6 3 9 7 12 12 9 10 9 15 12 13 13 13 12 13 16 18 3 7 10 7 5 11 10
12 11 10 8 9 10 9 7 8 9 12 9 10 12 13 13 15 15 4 2 4 6 7 6 8 10 10 8 9 1 6 8 3 7 10 7 11 6 4 10 8 7 8 5 6 8 8 6 8 6 5 6 5 6
13 11 11 8 8 8 5 7 8 9 10 11 10 11 12 12 13 11 7 5 6 6 8 9 7 8 9 10 8 7 4 8 3 6 8 7 6 4 8 12 8 15 7 7 7 7 9 6 6 11 8 8 7 4
13 12 11 8 7 7 7 7 8 8 9 10 11 11 11 12 12 12 7 5 6 6 7 7 5 7 1 8 9 8 8 7 7 8 8 8 6 7 11 7 10 7 3 11 11 8 1 10 9 9 7 6 4 5
13 12 12 9 9 8 8 9 7 8 9 9 11 11 12 12 12 9 9 4 2 7 7 5 5 4 8 7 9 9 7 7 9 7 7 8 10 4 7 12 9 4 2 4 3 10 8 5 8 7 6 6 6 5
13 13 12 10 9 9 9 8 7 7 8 9 10 12 12 11 12 6 6 4 1 4 6 5 7 5 6 7 8 7 7 7 8 8 6 8 6 4 7 12 16 3 4 9 7 9 6 5 2 5 5 5 3 7
15 13 13 11 10 8 8 8 7 8 9 10 11 12 12 10 8 5 7 6 7 5 6 5 6 8 6 8 7 7 7 6 7 8 8 7 5 6 11 13 8 10 6 3 5 7 9 2 6 6 4 3 3 10
16 15 14 12 11 9 8 8 7 8 10 11 13 13 14 11 11 5 1 8 8 5 5 6 4 8 10 8 7 6 6 6 6 7 6 7 6 6 8 14 14 6 2 7 8 4 8 8 5 2 3 1 3 10
17 16 15 13 12 10 9 8 8 9 11 12 15 15 6 6 2 2 4 4 5 5 5 5 6 4 8 5 4 4 5 7 6 9 10 6 7 8 6 11 12 5 5 9 12 10 12 6 6 6 5 4 2 6
19 17 16 14 12 11 9 7 8 9 11 13 8 5 3 2 7 4 5 5 6 5 5 8 3 1 6 2 6 6 4 4 2 7 7 9 10 8 9 8 4 6 5 9 10 9 9 6 3 4 5 10 5 6
20 17 16 15 12 11 9 7 7 10 11 5 5 2 5 5 4 5 3 5 5 5 6 7 2 1 3 4 2 1 2 4 5 5 5 6 8 8 9 4 3 5 8 9 9 9 10 9 4 6 6 9 10 8
20 18 16 14 13 11 9 7 7 7 2 4 3 3 3 3 4 5 4 4 5 3 3 2 3 4 2 3 3 4 4 3 5 5 3 7 6 8 9 8 10 11 8 8 9 10 11 11 9 8 5 9 10 5
20 18 15 14 13 12 9 7 6 8 10 5 5 5 2 4 1 6 8 5 4 4 0 1 5 3 1 3 4 4 5 6 3 4 6 5 4 5 5 5 6 9 12 12 10 9 11 12 12 11 9 8 6 9
19 18 15 14 13 12 9 7 6 8 7 5 5 1 5 6 6 1 1 2 1 2 2 3 2 1 2 4 3 5 3 3 4 5 3 1 4 3 5 7 9 10 13 16 13 11 10 13 11 10 12 11 10 7
20 17 15 13 13 11 9 7 6 7 6 5 4 4 8 6 2 4 2 3 2 2 2 4 1 3 2 4 4 2 4 6 1 3 1 1 5 6 9 9 11 10 12 12 14 11 10 12 11 11 12 12 8 8
20 15 9 17 13 11 9 7 5 5 3 4 4 6 5 3 6 4 4 6 2 1 4 3 3 3 3 3 3 5 5 5 3 2 4 6 7 9 11 11 8 10 12 11 12 12 10 11 13 13 7 8 6 5
19 5 18 17 13 10 8 6 6 6 4 4 4 5 4 1 4 3 2 1 4 1 2 2 3 5 3 2 4 5 6 6 6 6 6 10 13 14 14 8 10 10 10 10 10 10 10 6 2 3 5 7 8 7
6 15 21 16 13 8 5 6 5 4 6 8 2 3 1 3 5 4 0 3 4 3 5 3 3 6 4 3 4 4 5 6 6 7 10 11 11 13 10 10 8 8 9 9 8 4 4 5 6 6 9 9 11 12
13 13 16 16 10 5 5 5 4 4 5 2 1 3 3 4 4 4 1 6 5 3 5 3 5 4 3 2 7 8 9 9 9 9 8 9 8 7 6 3 4 3 3 4 5 5 5 7 6 5 7 8 8 8
17 14 12 10 6 5 5 3 2 5 2 2 4 2 2 1 3 3 4 3 4 4 4 4 6 3 6 4 6 8 9 9 5 5 6 3 3 3 3 3 3 6 7 9 9 8 9 7 6 8 9 10 9 8
12 8 8 7 7 5 4 3 5 2 4 3 3 5 3 2 2 2 3 6 5 3 5 6 4 6 6 7 7 5 5 5 4 3 3 2 3 3 4 4 6 7 6 5 7 7 7 7 7 8 10 11 12 8
7 11 4 6 4 3 4 1 2 2 3 0 2 4 4 3 4 3 3 3 4 4 4 5 6 8 7 7 5 5 5 3 2 2 4 3 3 6 6 5 8 8 8 7 8 7 8 8 8 9 9 9 12 8
5 5 4 4 2 1 4 3 2 1 2 3 1 2 1 1 1 2 2 1 3 2 2 4 7 6 6 5 3 2 3 3 3 4 5 6 6 7 7 7 6 9 9 9 8 8 9 10 10 11 10 9 8 9
3 4 4 2 4 3 3 2 2 2 1 1 1 1 0 1 2 1 2 3 3 4 3 4 3 3 3 4 4 5 5 5 6 6 4 6 8 8 8 8 7 8 9 9 10 9 8 8 9 11 11 10 10 10
2 3 3 3 3 2 2 2 1 0 2 2 1 0 1 1 1 1 2 3 3 3 3 4 5 5 5 6 5 5 4 4 5 5 1 6 11 8 6 7 8 10 10 9 6 9 8 7 7 8 10 10 11 12
0 3 1 0 1 1 2 2 2 3 3 2 1 1 1 0 2 2 3 3 3 3 5 5 6 7 7 5 5 4 3 4 8 9 6 7 4 8 9 9 7 7 10 12 12 12 10 8 9 11 10 10 5 9
3 2 2 3 2 1 2 3 3 3 2 2 2 2 2 2 2 2 2 2 2 3 4 4 4 6 5 7 5 5 6 4 7 7 6 5 7 7 8 8 10 8 8 8 8 9 9 8 9 9 8 7 6 6
0 1 2 3 2 3 2 2 2 3 1 4 3 2 3 1 2 1 2 2 1 1 2 4 4 3 5 5 7 6 8 7 6 8 9 9 9 9 9 8 9 14 10 11 5 8 7 7 7 7 6 6 6 7
2 3 3 4 4 4 2 1 2 3 3 2 3 3 2 1 0 1 3 4 6 4 6 5 3 2 3 7 3 3 4 6 9 9 9 8 8 8 7 8 8 8 7 8 14 13 13 11 9 7 6 5 4 3
3 5 3 3 4 2 2 4 8 7 9 11 10 9 5 3 5 7 7 7 8 9 9 9 10 9 6 4 5 4 5 4 5 6 7 7 7 7 6 6 5 6 5 5 6 7 3 5 5 5 3 2 3 2
4 6 12 10 9 8 9 9 10 11 10 10 8 10 10 6 4 3 6 5 6 6 5 6 6 6 7 7 6 5 8 7 9 9 6 6 6 6 5 3 2 2 2 1 1 1 4 4 1 1 2 4 4 5
5 6 8 13 6 4 7 11 12 11 9 9 10 10 9 7 8 5 4 4 4 5 4 2 4 5 6 6 6 8 8 7 5 5 7 6 6 3 2 2 3 4 2 2 1 2 2 3 1 2 2 1 1 2
9 7 8 9 9 9 7 6 7 7 7 7 7 7 7 7 8 4 3 1 5 6 5 6 6 7 5 6 8 7 10 10 11 11 11 12 11 11 8 6 4 3 1 2 2 3 1 1 0 1 2 2 2 2
Wind_Direction
242 254 272 261 276 284 294 316 325 331 331 343 351 355 354 356 352 333 13 4 319 304 324 349 305 289 289 275 261 84 180 220 230 226 245 244 250 233 233 242 198 201 212 227 234 246 243 36 285 261 33 12 359 2
233 249 265 245 269 276 274 293 312 321 327 339 344 349 350 354 348 339 288 54 328 267 349 326 290 294 294 330 321 274 320 288 238 252 233 261 245 233 273 234 221 256 231 268 261 235 81 43 38 35 358 358 348 352
227 242 255 240 263 290 244 277 299 313 323 333 337 339 346 348 346 336 317 328 273 258 243 221 202 190 229 247 288 292 194 3 283 341 317 283 264 318 232 235 266 213 235 266 306 176 82 35 68 40 10 358 336 337
225 239 242 232 240 251 260 280 283 301 314 318 332 332 338 338 337 329 301 343 278 290 277 115 134 208 145 232 228 246 301 320 284 275 268 279 277 256 275 347 297 72 17 241 257 76 303 80 36 18 6 12 5 47
228 234 227 230 235 248 265 275 281 289 303 308 316 323 326 329 326 297 266 268 296 307 331 7 160 132 176 187 213 220 244 273 273 237 237 251 257 349 262 279 270 294 13 315 36 17 347 24 12 7 2 21 20 61
228 226 221 227 234 252 256 273 272 284 297 301 306 312 315 319 316 282 199 153 270 309 275 244 99 170 157 177 190 197 221 236 255 264 265 273 90 319 271 241 227 108 31 15 27 342 344 295 357 345 344 351 35 84
221 223 218 224 229 240 248 262 273 279 289 295 300 303 302 301 286 308 356 3 330 293 250 249 174 156 163 173 187 202 202 234 238 243 245 274 233 188 256 269 112 16 348 11 335 313 277 5 4 15 343 64 211 93
216 219 217 221 227 233 244 255 271 278 286 294 298 296 289 279 265 258 342 209 287 271 266 271 141 166 187 197 187 203 205 217 213 251 255 228 238 204 257 265 274 161 237 299 289 317 308 325 289 358 338 197 172 130
211 215 218 219 225 228 234 249 267 279 289 298 301 300 234 225 226 67 124 184 235 286 281 247 323 107 177 233 102 240 256 215 215 214 227 251 232 230 231 233 259 289 332 323 309 289 280 289 30 358 326 273 197 151
207 211 214 214 223 216 225 243 265 282 291 299 274 212 176 84 121 173 178 209 201 195 241 262 1 191 212 233 222 143 257 267 239 261 244 231 238 251 235 213 302 341 322 290 289 272 259 353 133 265 329 318 254 145
201 204 209 203 207 206 215 236 266 293 265 214 224 124 122 128 217 229 235 212 195 222 200 254 312 151 139 267 321 145 223 231 245 197 240 220 230 194 172 94 278 274 267 276 290 295 292 282 209 242 195 293 289 141
191 193 196 196 195 199 205 223 265 259 3 353 297 252 193 190 226 248 230 196 234 202 251 255 179 210 258 288 187 265 261 284 267 141 265 248 70 50 43 36 359 316 280 282 291 287 288 285 277 261 275 206 232 187
184 183 185 184 189 191 195 211 255 297 286 220 226 206 150 227 252 238 186 176 222 154 249 229 224 212 258 287 245 225 238 234 349 201 218 57 114 76 37 353 329 310 288 284 284 286 278 272 260 263 247 252 209 207
170 173 174 174 182 178 188 205 240 264 257 233 177 293 226 200 229 137 221 36 157 173 228 271 207 245 220 211 238 243 222 312 257 252 60 133 70 343 331 311 310 307 311 307 296 291 293 277 270 262 256 247 226 188
156 160 159 167 170 176 186 207 244 247 264 234 215 230 212 236 76 111 236 159 133 206 298 292 285 259 256 276 229 296 242 228 212 56 132 67 330 306 293 312 304 308 299 289 288 294 290 290 290 270 248 249 226 201
142 133 173 151 169 176 186 204 218 240 236 254 233 249 244 171 223 192 171 176 192 19 297 234 247 236 242 258 258 246 291 349 64 330 316 346 329 299 291 299 282 278 280 277 271 283 283 279 270 265 207 217 192 140
172 154 145 153 165 176 198 249 202 219 248 237 227 256 236 224 238 86 69 77 257 47 324 312 258 222 273 263 266 305 4 12 22 351 342 351 333 316 302 298 281 281 269 266 267 269 265 252 237 146 79 48 95 91
94 132 143 152 168 172 188 226 232 224 230 230 317 295 304 285 335 68 129 358 330 19 303 359 284 234 259 305 302 22 13 337 345 351 344 338 310 299 285 275 274 262 254 249 244 186 123 134 115 94 93 88 84 76
124 136 153 174 215 304 183 185 262 252 219 212 213 213 203 211 159 202 237 62 319 341 291 271 277 274 271 327 337 335 344 341 341 338 304 296 298 310 311 314 279 243 170 164 159 117 97 89 91 99 102 100 98 93
105 131 162 188 242 261 192 152 228 258 252 196 225 198 303 118 260 303 29 339 344 303 249 230 246 3 344 6 352 333 339 348 316 301 297 309 325 332 353 1 58 75 65 67 56 56 87 80 75 89 89 82 77 80
167 135 171 228 200 265 301 185 221 67 290 190 205 238 251 191 51 344 312 355 268 239 233 246 295 323 347 341 350 329 300 293 274 248 289 322 14 22 45 57 67 75 75 78 87 80 80 85 89 90 94 95 89 60
97 173 228 181 260 189 258 225 355 339 247 139 327 10 324 360 1 32 331 252 279 306 330 328 333 328 327 326 320 302 282 350 10 41 31 5 61 64 58 66 82 79 69 74 75 79 80 82 88 88 92 97 90 106
174 215 220 204 241 100 261 220 258 289 294 52 302 192 169 195 55 327 264 284 277 259 270 288 287 274 260 286 245 115 88 82 59 57 51 56 67 77 75 65 81 93 82 74 83 82 79 78 76 90 91 96 116 133
144 272 279 202 181 243 97 18 74 35 336 263 257 251 117 21 12 3 280 266 263 280 229 224 228 138 112 78 67 81 85 88 82 71 48 75 80 85 92 92 81 79 86 90 102 107 113 119 144 146 153 147 119 108
228 295 150 282 274 156 132 187 166 230 259 213 235 176 112 93 26 338 285 287 301 320 69 87 83 77 91 84 70 65 66 104 102 97 106 98 108 106 94 100 106 118 128 123 110 116 158 139 132 110 94 96 104 106
213 200 140 178 163 105 146 213 208 217 224 178 125 122 205 323 52 4 309 308 310 339 52 58 87 91 80 69 91 85 73 102 105 103 147 175 140 87 118 131 126 142 158 140 135 128 133 138 92 96 101 90 77 116
234 177 65 15 58 120 230 245 251 258 227 158 137 203 184 63 58 329 303 359 335 33 51 35 87 107 129 111 122 164 186 206 82 68 65 98 87 92 81 78 84 89 91 89 85 93 104 120 122 125 127 114 98 94
202 189 207 172 210 219 271 217 237 248 169 112 159 40 67 106 103 280 310 311 33 98 65 68 64 97 80 116 111 100 108 123 132 115 96 89 81 76 78 80 58 48 58 35 70 115 114 113 111 103 97 89 75 54
205 180 207 205 214 202 215 185 331 41 45 137 127 90 83 76 158 175 215 196 179 193 129 134 147 204 108 115 146 123 107 100 90 105 109 106 108 109 123 130 135 110 106 96 52 49 37 40 33 52 63 77 89 97
161 180 239 217 157 93 117 125 108 92 76 79 96 112 113 132 177 185 185 199 198 187 165 166 173 180 167 120 87 76 100 97 93 97 100 103 106 104 109 104 108 108 105 111 120 124 98 175 160 180 207 165 142 129
159 140 110 103 113 125 137 133 122 122 122 123 120 112 118 140 138 114 104 117 134 144 140 130 128 135 133 131 137 127 94 77 66 48 32 98 88 70 68 81 113 104 89 39 302 220 138 221 72 79 112 17 49 300
124 97 105 102 101 125 123 127 127 131 141 144 136 137 146 127 115 125 156 179 169 115 46 118 119 78 80 95 73 67 60 109 114 66 27 56 74 58 108 81 67 44 23 49 348 117 144 295 315 14 102 192 317 320
140 151 137 118 121 130 128 111 99 103 99 106 122 130 127 99 108 131 218 9 138 160 141 107 107 90 74 82 86 88 66 75 73 61 58 53 40 11 328 41 45 358 359 347 22 83 157 19 295 355 310 305 267 270